Simultaneous Nadir Overpasses (SNOs) Predictions

Prediction of SNOs between NOAA-15 and METOP-C Satellite Orbit:

Table of predicted SNOs for the next 14.0 days since TLE Epoch: 7/5/2021
Index Date (NOAA-15) Time (NOAA-15) Lat,Lon (NOAA-15) SZA (NOAA-15 ) Date (METOP-C) Time (METOP-C) Lat,Lon (METOP-C) SZA (METOP-C ) Distance(km) Time Diff (sec)
1 07/18/2021 04:27:07 81.02, 150.42 61.79 07/18/2021 04:25:55 81.02, 150.47 61.76 0.89 72
2 07/18/2021 05:17:34 -81.02, -42.09 118.20 07/18/2021 05:16:36 -81.03, -42.02 118.21 1.71 58
3 07/18/2021 06:08:09 81.02, 125.23 61.80 07/18/2021 06:07:16 81.03, 125.34 61.80 2.22 53
4 07/18/2021 06:58:37 -81.03, -67.65 118.21 07/18/2021 06:57:58 -81.02, -67.53 118.22 2.28 39
5 07/18/2021 07:49:12 81.03, 99.67 61.80 07/18/2021 07:48:38 81.02, 99.83 61.79 2.98 34
6 07/18/2021 08:39:39 -81.03, -92.84 118.19 07/18/2021 08:39:19 -81.03, -92.67 118.18 3.03 20
7 07/18/2021 09:30:14 81.03, 74.48 61.81 07/18/2021 09:30:00 81.02, 74.33 61.78 3.03 14
8 07/18/2021 10:20:41 -81.03,-118.03 118.18 07/18/2021 10:20:41 -81.02,-118.17 118.19 2.42 0
9 07/18/2021 11:11:16 81.03, 49.29 61.83 07/18/2021 11:11:21 81.03, 49.19 61.82 1.70 5
10 07/18/2021 12:01:43 -81.02,-143.22 118.16 07/18/2021 12:02:02 -81.03,-143.31 118.15 1.86 19
11 07/18/2021 12:52:18 81.02, 24.10 61.85 07/18/2021 12:52:42 81.03, 24.05 61.86 1.34 24
12 07/18/2021 13:42:46 -81.04,-168.79 118.17 07/18/2021 13:43:24 -81.03,-168.81 118.16 1.21 38
13 07/18/2021 14:33:21 81.04, -1.46 61.84 07/18/2021 14:34:04 81.03, -1.45 61.85 1.14 43
14 07/18/2021 15:23:48 -81.03, 166.02 118.15 07/18/2021 15:24:45 -81.03, 166.05 118.12 0.46 57
15 07/18/2021 16:14:23 81.03, -26.66 61.86 07/18/2021 16:15:25 81.04, -26.59 61.89 1.18 62



Historial Predications of SNOs between NOAA-15 and METOP-C
